Location: Unspecified
(34.3920°N, 0.0000°E)
Time: 10:20:22
(UTC+00:00)

Spot 2 - Visible Passes

Search period start: 04 April 2026 00:00
Search period end: 14 April 2026 00:00
Orbit: 559 x 739 km, 98.7° (Epoch: 29 March)

Date Brightness Start Highest point End Pass type
(mag) Time Alt. Az. Time Alt. Az. Time Alt. Az.
4 Apr 6.8 02:39:54 15° N 02:39:54 15° N 02:40:47 10° N visible
5 Apr 6.4 03:06:08 17° N 03:06:08 17° N 03:07:14 10° N visible
6 Apr 7.4 01:54:37 10° NE 01:54:37 10° NE 01:54:39 10° NE visible
6 Apr 6.3 03:32:21 16° NNW 03:32:21 16° NNW 03:33:21 10° NNW visible
7 Apr 6.8 02:20:50 17° NNE 02:20:50 17° NNE 02:22:21 10° NNE visible
7 Apr 6.4 03:58:35 12° NW 03:58:35 12° NW 03:59:01 10° NW visible
8 Apr 6.2 02:47:03 24° NNE 02:47:03 24° NNE 02:49:07 10° N visible
9 Apr 5.7 03:13:17 28° NNW 03:13:17 28° NNW 03:15:29 10° NNW visible
10 Apr 7.0 02:01:45 14° NE 02:01:45 14° NE 02:03:31 10° NNE visible
10 Apr 5.7 03:39:30 23° NW 03:39:30 23° NW 03:41:29 10° NNW visible
11 Apr 6.3 02:27:58 25° NE 02:27:58 25° NE 02:30:47 10° N visible
11 Apr 6.0 04:05:43 16° NW 04:05:43 16° NW 04:07:01 10° NW visible
12 Apr 5.4 02:54:12 39° NNE 02:54:12 39° NNE 02:57:25 10° N visible
13 Apr 4.9 03:20:24 44° NNW 03:20:24 44° NNW 03:23:41 10° NNW visible
